Antônio Peixoto

Chefscout - Paysandu
4 Apr 2027
Sonntag
Verarbeitung

Persönlichkeit

Anpassungsfähigkeit (5) Ehrgeiz (5) Kontroverse (9) Loyalität (2) Druck (17) Professionalität (15) Fairness (17) Temperament (2)

Profil

Trainerstil Demokratisch
Lizenz Kontinentale B
Entschlossenheit 9
Menschenführung 11
Motivation 6
Disziplin 9
Arbeitszufriedenheit
49%
Ermüdung
0%
Rolle Chefscout
Gehalt 17.4K p/W
Vertrag 14.03.2029

Leistung

Verhalten Normal
Trainingseffektivität
13%
Spielerentwicklung
45%
Verletzungsprävention
40%
Taktische Umsetzung
35%

Letzte Ereignisse

Nahm an einer Scouting-Besprechung teil 7T her
Nahm an einer Scouting-Besprechung teil 14T her
Nahm an einer Scouting-Besprechung teil 21T her
Nahm an einer Scouting-Besprechung teil 28T her
Nahm an einer Scouting-Besprechung teil 35T her
Nahm an einer Scouting-Besprechung teil 42T her
Nahm an einer Scouting-Besprechung teil 49T her
Nahm an einer Scouting-Besprechung teil 56T her

Aktuell beobachtet

80
Spieler Verein Status Fähigkeit Vertrauen Beobachtet Zuletzt beobachtet Letzte Stimme
Rui Pedro Chaves Aktiv 124 / 103 40% 2 04.10.2026 -
Michael Barrios Once Caldas Aktiv 120 / 107 40% 1 04.10.2026 -
Antoine Griezmann Orlando City Aktiv 139 / 165 40% 1 01.10.2026 -
Mohammed Bouldini Académico de Viseu Aktiv 123 / 101 40% 1 01.10.2026 -
Juan Dinenno Pumas UNAM Aktiv 124 / 123 40% 1 30.09.2026 -
Gabriel Barbosa Farense Aktiv 120 / 87 40% 1 30.09.2026 -
Bryan Róchez Leiria Aktiv 105 / 117 40% 1 29.09.2026 -
Luciano Cosentino Wanderers Aktiv 124 / 113 40% 1 29.09.2026 -
Achraf Bencharki Al Ahly Aktiv 144 / 117 40% 1 28.09.2026 -
Jonathan Calleri Sport Recife Aktiv 131 / 140 40% 1 28.09.2026 -
Leandro Suhr Boston River Aktiv 117 / 115 40% 3 26.09.2026 -
Alípio Hatayspor Aktiv 116 / 119 40% 1 26.09.2026 -
Mo Dauda Portimonense Aktiv 99 / 88 40% 1 25.09.2026 -
Mourad Tijuana Aktiv 109 / 111 40% 1 25.09.2026 -
Ricardo Schutte Penafiel Aktiv 115 / 98 40% 1 24.09.2026 -
Michael Smith Mansfield Town Aktiv 114 / 116 40% 1 23.09.2026 -
Luis Amarilla Cerro Porteno Aktiv 124 / 123 40% 1 20.09.2026 -
Federico Martínez Liverpool Montevideo Aktiv 113 / 102 40% 1 20.09.2026 -
Ángel Sepúlveda Guadalajara Aktiv 139 / 124 40% 3 18.09.2026 -
Lucas Moura Sport Recife Aktiv 129 / 124 40% 1 18.09.2026 -
Carlos Eduardo Gil Vicente Aktiv 96 / 129 40% 1 17.09.2026 -
Jorge Obregón Deportivo Pasto Aktiv 107 / 111 40% 1 17.09.2026 -
Wilfrido De La Rosa Jaguares Aktiv 120 / 109 40% 2 16.09.2026 -
Gonçalo Paciência Santa Clara Aktiv 95 / 120 40% 1 16.09.2026 -
José Bica Leixões Aktiv 91 / 121 40% 1 15.09.2026 -
Alejandro Valencia La Equidad Aktiv 127 / 116 40% 1 14.09.2026 -
Jair Silva Leiria Aktiv 98 / 122 40% 1 14.09.2026 -
Octavio Rivero Universidad de Chile Aktiv 133 / 131 40% 1 13.09.2026 -
Alisson Safira Juventude Aktiv 125 / 133 40% 1 13.09.2026 -
Ricardo Valente Mattersburg Aktiv 99 / 108 40% 1 12.09.2026 -
Brayan Fernández Patriotas Aktiv 104 / 109 40% 1 11.09.2026 -
Gustavo Torres Atletico Nacional Aktiv 118 / 117 40% 2 10.09.2026 -
Jhonatan Candia Barracas Central Aktiv 116 / 136 40% 1 09.09.2026 -
Kahiser Lenis Atletico Goianiense Aktiv 115 / 109 40% 1 09.09.2026 -
Nicolás Fernández Belgrano Aktiv 119 / 137 40% 1 08.09.2026 -
Anthony Lozano Santos Laguna Aktiv 121 / 101 40% 1 07.09.2026 -
Leonardo Castro Millonarios Aktiv 121 / 121 40% 1 06.09.2026 -
Juanda Fuentes Penafiel Aktiv 111 / 92 40% 1 06.09.2026 -
Bruno Larregui Juventud Aktiv 120 / 122 40% 1 04.09.2026 -
Marcelo Torres Gimnasia La Plata Aktiv 128 / 117 40% 1 04.09.2026 -
Pablo Fernández Leiria Aktiv 93 / 110 40% 1 02.09.2026 -
Carlos Eduardo Mirassol Aktiv 110 / 128 40% 1 02.09.2026 -
Kévin Zohi Torreense Aktiv 99 / 106 40% 2 31.08.2026 -
Esteban Obregón Montevideo City Torque Aktiv 108 / 118 40% 1 31.08.2026 -
Robin Lod Chicago Fire Aktiv 115 / 124 40% 1 30.08.2026 -
Khayon Edwards Estoril Praia Aktiv 91 / 106 40% 1 30.08.2026 -
Yann Kitala Vizela Aktiv 103 / 96 40% 1 28.08.2026 -
João Vasco Lusitânia Lourosa Aktiv 107 / 99 40% 1 27.08.2026 -
Juan Muñoz Leiria Aktiv 134 / 138 40% 1 27.08.2026 -
Alexander Díaz Deportivo Riestra Aktiv 121 / 102 40% 1 25.08.2026 -
Marcelo Estigarribia Unión de Santa Fe Aktiv 124 / 130 40% 1 25.08.2026 -
Renzo López Ceará Aktiv 121 / 101 40% 1 24.08.2026 -
André Clovis Académico de Viseu Aktiv 118 / 137 40% 1 24.08.2026 -
Mésaque Djú Portimonense Aktiv 111 / 108 40% 1 23.08.2026 -
Antony Alonso Deportivo Riestra Aktiv 130 / 127 40% 1 23.08.2026 -
Renato Kayser Vitória Aktiv 132 / 125 40% 1 22.08.2026 -
Ezequiel Almirón Estudiantes Aktiv 112 / 100 40% 1 19.08.2026 -
Fernando Karanga Dinamo Moscow Aktiv 102 / 111 40% 1 18.08.2026 -
Jhojan Julio Queretaro Aktiv 106 / 138 40% 1 18.08.2026 -
Romarinho FC Nordsjaelland Aktiv 122 / 96 40% 1 15.08.2026 -
Rodrigo Pinho AVS Aktiv 111 / 127 40% 1 13.08.2026 -
Felipe Augusto Slovacko Aktiv 76 / 91 40% 1 13.08.2026 -
Gabriel Ávalos Aktiv 131 / 136 40% 1 12.08.2026 -
Rodrigo Chagas Juventud Aktiv 107 / 125 40% 1 10.08.2026 -
José Sampaio Vizela Aktiv 109 / 102 40% 1 10.08.2026 -
Manu Garrido Vizela Aktiv 107 / 113 40% 1 10.08.2026 -
Jefry Zapata Once Caldas Aktiv 123 / 122 40% 1 10.08.2026 -
Paulo Henrique Maritimo Aktiv 108 / 121 40% 1 08.08.2026 -
Facundo Miño Deportivo Riestra Aktiv 110 / 122 40% 1 07.08.2026 -
Kevyn Vinícius Nacional Aktiv 99 / 88 40% 1 06.08.2026 -
Brian Bustos Platense Aktiv 124 / 111 40% 1 06.08.2026 -
Douglas Borel Santa Clara Aktiv 113 / 96 40% 1 06.08.2026 -
Tomás Cruz Benfica Aktiv 85 / 89 40% 1 06.08.2026 -
Noah Madsen Maritimo Aktiv 91 / 128 40% 1 05.08.2026 -
Ulisses Nacional Aktiv 97 / 94 40% 1 05.08.2026 -
Vicente Poggi Godoy Cruz Aktiv 130 / 123 40% 1 03.08.2026 -
Iván Rojas Aguilas Doradas Aktiv 125 / 126 40% 1 03.08.2026 -
Óscar Plano Leganés Aktiv 122 / 137 40% 1 03.08.2026 -
Nikos Michelis Académico de Viseu Aktiv 102 / 99 40% 1 01.08.2026 -
João Goulart Casa Pia Aktiv 110 / 137 40% 1 01.08.2026 -